Location: Cluj-Napoca
(46.7712°N, 23.6236°E)
Time: 14:20:30
(UTC+02:00)

ISS - Visible Passes

Search period start: 03 December 2022 00:00
Search period end: 13 December 2022 00:00
Orbit: 414 x 420 km, 51.6° (Epoch: 03 December)

Date Brightness Start Highest point End Pass type
(mag) Time Alt. Az. Time Alt. Az. Time Alt. Az.
03 Dec -3.4 17:17:34 10° WNW 17:20:49 46° NNE 17:24:04 10° E visible
03 Dec -2.7 18:54:23 10° WNW 18:57:24 43° SW 18:57:24 43° SW visible
04 Dec -3.5 18:06:12 10° WNW 18:09:32 69° SSW 18:11:47 19° SE visible
04 Dec -0.3 19:44:25 10° WSW 19:44:45 11° WSW 19:44:45 11° WSW visible
05 Dec -3.8 17:18:02 10° WNW 17:21:24 81° NNE 17:24:45 10° ESE visible
05 Dec -1.2 18:55:23 10° W 18:57:50 19° SW 18:59:22 14° S visible
06 Dec -1.8 18:06:51 10° W 18:09:49 29° SW 18:12:46 10° SSE visible
07 Dec -2.6 17:18:30 10° WNW 17:21:44 46° SSW 17:24:57 10° SE visible
08 Dec -0.5 18:08:18 10° WSW 18:09:49 13° SW 18:11:20 10° SSW visible
09 Dec -0.7 17:19:16 10° W 17:21:48 20° SW 17:24:18 10° S visible
